Regional Weather Roundup
Issued by NWS Wakefield, VA

Home | Current Version | Previous Version | Text Only | Print | Product List | Glossary On
Versions: 1 2 3 4 5 6 7 8 9 10 11 12 13 14 15 16 17 18 19 20 21 22 23 24 25 26 27 28 29 30 31 32 33 34 35 36 37 38 39 40 41 42 43 44 45 46 47 48 49 50
000
ASUS41 KAKQ 121815
RWRAKQ

REGIONAL WEATHER ROUNDUP
NATIONAL WEATHER SERVICE WAKEFIELD VA
100 PM EST FRI FEB 12 2016

Note: "fair" indicates few or no clouds below 12,000 feet with no
significant weather and/or obstructions to visibility. * = Denotes
station may not report precipitation (e.g., rain,snow,etc.),
thunder or fog.

VAZ042-051-052>054-056-121900-
NORTHERN VIRGINIA

CITY           SKY/WX    TMP DP  RH WIND       PRES   REMARKS
WASH NATIONAL  CLOUDY    28   7  41 S6        30.17F
DULLES         CLOUDY    29   6  38 S12       30.13F WCI  19
FORT BELVOIR   CLOUDY    28   5  37 S8        30.16F
QUANTICO       CLOUDY    29  11  47 S12       30.18F WCI  19
FREDERICKSBRG* FAIR      29   8  41 SE6       30.16F
STAFFORD*      CLOUDY    28   4  36 S9        30.20F
WARRENTON      CLOUDY    30  12  46 S6        30.12F
CULPEPER*      CLOUDY    28   6  39 S8        30.14F
MANASSAS*      MOSUNNY   28   9  43 S9        30.16F
LEESBURG*      CLOUDY    30  10  43 S8        30.13F
WINCHESTER     CLOUDY    30   9  40 S3        30.08F
FRONT ROYAL*   CLOUDY    30   9  40 N3        30.06F
LURAY*         CLOUDY    30  10  43 SW9       30.06F
$$

VAZ048-049-060>072-079>083-121900-
CENTRAL AND SOUTH CENTRAL VIRGINIA

CITY           SKY/WX    TMP DP  RH WIND       PRES   REMARKS
RICHMOND       CLOUDY    26   4  38 S3        30.18F
CHESTERFIELD*  CLOUDY    28   0  29 S5        30.18F
PETERSBURG*    CLOUDY    31  -2  24 CALM      30.18F
HANOVER        CLOUDY    28   6  39 S7        30.19F
TAPPAHANNOCK*  FAIR      30   6  36 SE3       30.18F
QUINTON*       CLOUDY    27   5  38 CALM      30.18F
CHARLOTTSVILLE CLOUDY    29   6  38 SW10      30.12F WCI  20
GORDONSVILLE*  CLOUDY    28   7  39 SW9       30.13F
ORANGE*        CLOUDY    30   7  37 S12       30.15F WCI  21
LOUISA*        CLOUDY    28   5  37 S8        30.13F
BUMPASS*       CLOUDY    29   6  37 S5        30.16F
FARMVILLE*     CLOUDY    30   5  33 S5        30.14F
CREWE*         CLOUDY    28   4  36 CALM      30.15F
FORT PICKETT*  NOT AVBL
CHASE CITY*    CLOUDY    29   2  31 CALM      30.14F
CLARKSVILLE*   CLOUDY    28  12  50 E3        30.16F
SOUTH HILL*    CLOUDY    28   8  44 CALM      30.21F
LAWRENCEVILLE* CLOUDY    29   7  40 S6        30.15F
EMPORIA*       CLOUDY    30  10  43 CALM      30.18F
$$

VAZ088>098-121900-
SOUTHEAST VIRGINIA

CITY           SKY/WX    TMP DP  RH WIND       PRES   REMARKS
NORFOLK        CLOUDY    30  12  47 NE6       30.18F
VIRGINIA BEACH CLOUDY    34  13  41 E7        30.18F
NORFOLK NAVAL  CLOUDY    30  13  49 E6        30.19F
WEST POINT*    CLOUDY    28   3  34 SE5       30.20F
SALUDA*        CLOUDY    27   9  47 E5        30.18F
NEWPORT NEWS   CLOUDY    30  15  53 SE7       30.18F
LANGLEY AFB    CLOUDY    29  12  49 SE5       30.18F
FORT EUSTIS    FAIR      30  11  45 SE7       30.16F
WILLIAMSBURG*  FAIR      34  12  40 CALM      30.19F
HR EXEC AP*    MOCLDY    32  10  40 SE3       30.19F
FRANKLIN*      CLOUDY    31  11  44 E5        30.18F
US460-WAKEFLD  CLOUDY    30  10  43 S5        30.17F
$$

VAZ020-022-025-037-045-121900-
WEST CENTRAL AND SOUTHWEST VIRGINIA

CITY           SKY/WX    TMP DP  RH WIND       PRES   REMARKS
STAUNTON*      CLOUDY    35  10  35 S13G20    30.06F
WAYNESBORO*    CLOUDY    31   6  35 SW5       30.04F
HOT SPRINGS VA MIX PCPN  24  15  68 W10       29.87F WCI  13
LYNCHBURG      CLOUDY    28   6  39 S9        30.12F
DANVILLE       LGT SNOW  27  15  61 CALM      30.15F
SOUTH BOSTON*  CLOUDY    29   8  40 CALM      30.15F
MARTINSVILLE   FLURRIES  26  12  55 CALM      30.13F
ROANOKE        CLOUDY    30  11  45 VRB5      30.10F
BLACKSBURG     CLOUDY    29  17  59 S3        30.03F
DUBLIN*        CLOUDY    34  15  47 SW7       30.01F
MARION*        FLURRIES  30  25  81 SW8       30.00F
HILLSVILLE*    CLOUDY    27  20  75 S7        29.96F
RICHLANDS*     LGT SNOW  26  23  85 W6        29.99F
WISE*          FLURRIES  30  23  74 SW6       30.00F
ABINGDON*      LGT SNOW  31  28  86 W3        30.03F VSB 1
$$

MDZ021>025-VAZ099-100-121900-
SOUTHERN MARYLAND AND THE DELMARVA PENINSULA

CITY           SKY/WX    TMP DP  RH WIND       PRES   REMARKS
PATUXENT RIVER CLOUDY    26   7  44 SE8       30.18F
BAY BRIDGE APT   N/A     28   3  34 CALM      30.18F
LEONARDTOWN    PTSUNNY   28   5  37 SW6       30.19
DOVER          CLOUDY    27   9  47 VRB6      30.17F
GEORGETOWN     MOSUNNY   26   3  37 W9        30.19F
EASTON         PTSUNNY   27   7  43 SW3       30.22F
CAMBRIDGE      MOSUNNY   28   9  43 NW6       30.16F
SALISBURY      MOSUNNY   29   5  36 SW8       30.18F
OCEAN CITY     CLOUDY    25   7  46 S6        30.20F
WALLOPS ISLAND PTSUNNY   27   6  41 SE8       30.19F
ACCOMACK*      CLOUDY    28   9  43 S7        30.18F
$$

NCZ012>017-030>032-121900-
NORTH CENTRAL AND EASTERN NORTH CAROLINA

CITY           SKY/WX    TMP DP  RH WIND       PRES   REMARKS
ROANOKE RAPIDS FAIR      32  12  43 NE3       30.17F
RALEIGH        LGT SNOW  27  18  69 CALM      30.16F FOG
ELIZABETH CITY CLOUDY    33  18  53 E9        30.18F
AHOSKIE*       PTSUNNY   30  13  49 CALM      30.18F
EDENTON*       CLOUDY    35  22  59 E7        30.17F
CURRITUCK*     CLOUDY    32  19  58 NE6       30.18F
KILL DEVIL HLS CLOUDY    36  19  51 CALM      30.15F
MANTEO         CLOUDY    35  21  57 E8        30.18F
CAPE HATTERAS  LGT RAIN  33  32  96 NE10G18   30.12F WCI  25
TARBORO*       CLOUDY    32  17  54 CALM      30.18F
GOLDSBORO      NOT AVBL
WASHINGTON     LGT SNOW  31  26  80 E6        30.16F
GREENVILLE     LGT SNOW  32  23  69 E7        30.17F
NEW BERN       FRZ RAIN  33  30  88 E8        30.12F FOG
WILMINGTON     CLOUDY    35  31  85 VRB7      30.10F
$$

VAZ048-121900-
ELSEWHERE

CITY           SKY/WX    TMP DP  RH WIND       PRES   REMARKS
HARRISBURG PA  CLOUDY    23   4  44 SW7       30.13F
BALTIMORE      CLOUDY    27   3  35 VRB3      30.16F
ANNAPOLIS      CLOUDY    25  10  53 SE9       30.17F
ANDREWS AFB    PTSUNNY   28   5  37 VRB7      30.14F
PHILADELPHIA   PTSUNNY   25   1  35 W10       30.18F WCI  15
HENDERSON NC   CLOUDY    29   3  33 NE3       30.14F
GREENSBORO     FLURRIES  32   7  35 CALM      30.10F
ROCKY MOUNT    CLOUDY    31  15  52 E7        30.16F
$$

VAZ100-121900-
MARINE

STATION/POSITION TIME  TEMP    WIND        PRES    WAVE   SWELL
                       AIR SEA DIR/SP/G            HT/PER HT/PER
                 (UTC) (F)     (DEG/KT/KT) (MB)    (FT/S) (FT/S)
BRANDYWINE LGT   1700   22     220/  5/  5 1023.6F
CAPE MAY NJ      1700   24 36  260/  4/  6 1023.3F
LEWES DE         1700   25 37  290/  4/  6 1023.4F
15NM E FENWICK I 1750   25 43              1023.1F   2/ 7
OCEAN-CITY-INLET 1700   24 41  200/  6/  8 1023.4F
WACHAPREAGUE VA  1700   26 36  150/  3/  5 1024.1F
THOMAS POINT MD  1800   23 36  140/  8/ 10 1022.6F
GOOSES REEF MD   1800   25 38  160/  6/  8 1023.0F   0
COVE POINT MD    1700   23     150/  6/  8 1024.2F
SOLOMONS ISLAND  1700   26 39  130/  3/  4   N/A
BISHOPS HEAD MD  1700   24 32  260/  5/  6 1023.0F
PINEY POINT MD   1700          170/  5/  6   N/A
POTOMAC MD       1800   25 39  150/  4/  6 1021.3F   0
CAMBRIDGE MD     1700   24 36  340/  6/  7 1022.8F
LEWISETTA VA     1700   24 37  110/  5/  6 1023.3F
RAPPAHANNOCK LGT 1700          290/  2/  2 1024.2F
STINGRAY PT      1800   26 41  130/  2/  6 1022.0F   1
YORK RVR RNG VA  1700   26     130/  6/  8 1023.3F
YORKTOWN VA      1700   27 41   90/  5/  9 1023.6F
JAMESTOWN VA     1800   28 41  140/  6/  8   N/A     0
DOMINION TERM VA 1700   29     100/  5/  8 1023.4F
KIPTOPEKE VA     1712      40  100/  4/  5   N/A
CHES BAY BRIDGE  1700   27 40   50/  7/  9 1023.3F
CAPE HENRY VA    1700   27      40/  5/  7   N/A
CHESAPEAKE LGHT  1700   28      60/  2/  3 1024.8F
WILLOUBY STN VA  1700   27      70/  7/  8 1024.3F
CAPE HENRY BUOY  1758      42                N/A     2/ 5
1ST LANDING BUOY 1800      41                N/A     1/ 3
CAPE CHARLES BUO 1756      42                N/A     1/ 4   2/ 4
OFFSHORE WE BUOY 1751      45                N/A     2/ 5   2/ 5
64NM E OF VA BCH 1750   32 50   60/  2/  6 1022.0F   3/ 6   2/ 6
DUCK PIER NC     1700   33      80/  6/  9 1022.8F
44100 DUCK FRF   1754      46                N/A     3/ 5
44056 DUCK FRF   1711      43                N/A     3/ 6
OREGON INLET NC  1700   35 40   70/  8/ 10 1022.4F
HATTERAS NC      1700   33 45   40/ 11/ 14 1021.4F
DIAMOND SHLS NC  1750   46 59   40/ 14/ 21 1019.4F   3/ 7   2/ 7
$$



USA.gov is the U.S. government's official web portal to all federal, state and local government web resources and services.